Location: Phoenix
(33.4480°N, 112.0730°W)
Time: 00:08:29
(UTC-07:00)

ISS - All Passes

Search period start: 01 February 2015 00:00
Search period end: 11 February 2015 00:00
Orbit: 400 x 408 km, 51.6° (Epoch: 01 February)

Date Brightness Start Highest point End Pass type
(mag) Time Alt. Az. Time Alt. Az. Time Alt. Az.
01 Feb - 03:59:21 10° NW 04:02:34 48° NE 04:05:46 10° ESE night (unlit)
01 Feb - 05:37:33 10° WSW 05:38:45 11° SW 05:39:48 10° SW visible
01 Feb - 19:02:25 10° SE 19:03:09 11° SE 19:04:01 10° ESE visible
01 Feb - 20:36:08 10° WSW 20:39:18 50° NW 20:42:31 10° NE visible
02 Feb - 03:07:21 10° NNW 03:10:08 25° NE 03:12:56 10° E night (unlit)
02 Feb - 04:43:49 10° WNW 04:46:34 24° SW 04:49:16 10° S night (unlit)
02 Feb - 19:43:45 10° SW 19:46:58 70° SE 19:50:14 10° NE visible
02 Feb - 21:22:12 10° WNW 21:23:48 13° NNW 21:25:20 10° N night (unlit)
03 Feb - 02:15:39 10° N 02:17:34 15° NNE 02:19:35 10° ENE night (unlit)
03 Feb - 03:51:05 10° NW 03:54:18 54° SW 03:57:31 10° SSE night (unlit)
03 Feb - 18:51:50 10° SSW 18:54:41 29° SE 18:57:36 10° ENE visible
03 Feb - 20:28:37 10° W 20:31:12 21° NW 20:33:46 10° NNE visible
04 Feb - 02:58:41 10° NW 03:01:58 64° NE 03:05:13 10° SE night (unlit)
04 Feb - 18:00:43 10° SSE 18:02:25 14° SE 18:04:16 10° E daylight
04 Feb - 19:35:35 10° WSW 19:38:40 39° NW 19:41:45 10° NNE visible
05 Feb - 02:06:32 10° NNW 02:09:29 30° NE 02:12:27 10° ESE night (unlit)
05 Feb - 03:43:25 10° W 03:45:49 19° SW 03:48:10 10° S night (unlit)
05 Feb - 18:42:58 10° SW 18:46:13 87° NW 18:49:29 10° NE visible
05 Feb - 20:22:12 10° NW 20:23:09 11° NNW 20:24:01 10° NNW visible
06 Feb - 01:14:37 10° NNW 01:16:53 17° NNE 01:19:12 10° ENE night (unlit)
06 Feb - 02:50:23 10° WNW 02:53:30 40° SW 02:56:35 10° SSE night (unlit)
06 Feb - 17:50:47 10° SSW 17:53:49 39° SE 17:56:53 10° ENE daylight
06 Feb - 19:28:07 10° WNW 19:30:25 18° NNW 19:32:43 10° NNE visible
07 Feb - 00:23:20 10° NNE 00:24:09 11° NNE 00:25:03 10° NE night (unlit)
07 Feb - 01:57:48 10° NW 02:01:06 85° NE 02:04:22 10° SE night (unlit)
07 Feb - 16:59:13 10° S 17:01:28 18° SE 17:03:47 10° E daylight
07 Feb - 18:34:50 10° WSW 18:37:47 31° NW 18:40:44 10° NNE visible
08 Feb - 01:05:29 10° NNW 01:08:34 38° NE 01:11:40 10° ESE night (unlit)
08 Feb - 02:42:52 10° W 02:44:49 15° SW 02:46:40 10° SSW night (unlit)
08 Feb - 17:41:59 10° SW 17:45:13 66° NW 17:48:27 10° NE daylight
09 Feb - 00:13:23 10° NNW 00:15:55 21° NE 00:18:29 10° E night (unlit)
09 Feb - 01:49:29 10° WNW 01:52:27 31° SW 01:55:22 10° SSE night (unlit)
09 Feb - 16:49:34 10° SSW 16:52:43 51° SE 16:55:53 10° NE daylight
09 Feb - 18:27:25 10° WNW 18:29:25 15° NNW 18:31:21 10° N visible
09 Feb - 23:21:41 10° N 23:23:08 12° NNE 23:24:41 10° ENE night (unlit)
10 Feb - 00:56:42 10° NW 00:59:59 73° SW 01:03:14 10° SE night (unlit)
10 Feb - 15:57:40 10° S 16:00:15 23° SE 16:02:54 10° ENE daylight
10 Feb - 17:33:52 10° W 17:36:39 25° NW 17:39:25 10° NNE daylight
